Regional Weather Roundup
Issued by NWS Green Bay, WI

Home | Current Version | Previous Version | Graphics & Text | Print | Product List | Glossary Off
Versions: 1 2 3 4 5 6 7 8 9 10 11 12 13 14 15 16 17 18 19 20 21 22 23 24 25 26 27 28 29 30 31 32 33 34 35 36 37 38 39 40 41 42 43 44 45 46 47 48 49 50

407
ASUS43 KGRB 231600
RWRGRB

NORTH-CENTRAL AND NORTHEAST WISCONSIN REGIONAL WEATHER ROUNDUP
NATIONAL WEATHER SERVICE GREEN BAY WI
1000 AM CST TUE JAN 23 2018

WIZ005-009-010>012-018-019-231700-
NORTH CENTRAL WISCONSIN

CITY           SKY/WX    TMP DP  RH WIND       PRES   REMARKS
IRONWOOD       FLURRIES  18  17  96 N7        29.94R WCI   9
MANITOWISH WTR NOT AVBL
ARBOR VITAE    NOT AVBL
EAGLE RIVER    CLOUDY    18  16  95 N15       29.82R FOG     WCI   3
LAND O LAKES   NOT AVBL
RHINELANDER    CLOUDY    18  15  88 N12G21    29.83R WCI   5
PHILLIPS       FLURRIES  17  14  88 N10       29.88R WCI   5
ANTIGO         NOT AVBL
TOMAHAWK       NOT AVBL
MERRILL        CLOUDY    20  16  84 N16G25    29.85R WCI   6
$$

WIZ013-073-231700-
NORTHEAST WISCONSIN

CITY           SKY/WX    TMP DP  RH WIND       PRES   REMARKS
IRON MOUNTAIN  CLOUDY    22  17  81 NW15      29.76R WCI   9
MARINETTE      FLURRIES  25  20  81 N20G26    29.76R
$$

WIZ017-030-035>037-045-231700-
CENTRAL WISCONSIN

CITY           SKY/WX    TMP DP  RH WIND       PRES   REMARKS
MEDFORD        NOT AVBL
WAUSAU         CLOUDY    20  16  84 N17G29    29.82R WCI   5
MOSINEE        CLOUDY    21  18  86 N18G28    29.84R WCI   6
MARSHFIELD     CLOUDY    20  17  88 N18G24    29.85R WCI   5
WISC RAPIDS    NOT AVBL
STEVENS POINT  NOT AVBL
WAUPACA        NOT AVBL
SHAWANO        CLOUDY    28  21  76 N9G20     29.79R
CLINTONVILLE   NOT AVBL
WAUTOMA        CLOUDY    25  20  81 N16G24    29.84R
$$

WIZ038-039-048-051-231700-
FOX VALLEY

CITY           SKY/WX    TMP DP  RH WIND       PRES   REMARKS
NWS GREEN BAY  CLOUDY    26  21  81 NW10      29.79R
APPLETON       CLOUDY    25  18  74 NW13      29.77R
OSHKOSH        CLOUDY    26  20  77 NW14      29.79R
FOND DU LAC    CLOUDY    27  20  75 NW13      29.79R
$$

WIZ022-050-052-231700-
EAST CENTRAL WISCONSIN

CITY           SKY/WX    TMP DP  RH WIND       PRES   REMARKS
EPHRAIM        NOT AVBL
WASHINGTON ISL NOT AVBL
STURGEON BAY   CLOUDY    25  22  88 N20G28    29.74R
MANITOWOC      FLURRIES  27  22  81 NW18G25   29.76R
SHEBOYGAN      CLOUDY    27  23  85 NW12      29.76R
$$

LMZ563-521-522-541>543-231700-
LAKESHORE

STATION/POSITION TIME  TEMP    WIND        PRES    VSBY  WAVE
                       AIR SEA DIR/SP/G                  HT/PER
                 (UTC) (F)     (DEG/KT/KT) (MB)    (MI)  (FT/S)
SHEBOYGAN LKSHOR 1500   27     330/ 18/ 21 1006.8R
KEWAUNEE LKSHORE 1530   26     330/  9/ 17 1005.9R
NORTHPORT PIER   1540   25     340/  9/ 13 1006.4R
SISTER BAY LKSHO 1520   25      10/ 26/ 31   N/A
MENOMINEE LKSHOR 1524   25     330/ 18/ 23 1006.6
$$




USA.gov is the U.S. government's official web portal to all federal, state and local government web resources and services.